Regional Weather Roundup
Issued by NWS

Home | Current Version | Previous Version | Text Only | Print | Product List | Glossary Off
Versions: 1 2 3 4 5 6 7 8 9 10 11 12 13 14 15 16 17 18 19 20 21 22 23 24 25 26 27 28 29 30 31 32 33 34 35 36 37 38 39 40 41 42 43 44 45 46 47 48 49 50

000
ASUS43 KBIS 222020
RWRND

NORTH DAKOTA REGIONAL WEATHER ROUNDUP
NATIONAL WEATHER SERVICE BISMARCK ND
300 PM CDT MON SEP 22 2014

NOTE: "FAIR" INDICATES FEW OR NO CLOUDS BELOW 12,000 FEET WITH NO
SIGNIFICANT WEATHER AND/OR OBSTRUCTIONS TO VISIBILITY.


NDZ001>003-009>011-017-222100-
NORTHWEST NORTH DAKOTA

CITY           SKY/WX    TMP DP  RH WIND       PRES   REMARKS
WILLISTON      SUNNY     82  42  24 SE10      29.92F
MINOT          SUNNY     80  44  27 SE13      29.97F
MINOT AFB      SUNNY     78  46  32 SE18      29.96F
$$

NDZ018>021-031>035-040>046-222100-
SOUTHWEST NORTH DAKOTA

CITY           SKY/WX    TMP DP  RH WIND       PRES   REMARKS
BISMARCK       SUNNY     83  46  27 S17       30.00F
DICKINSON      SUNNY     77  48  35 SE17      29.94F
GARRISON         N/A     79  49  34 S10G18    29.98F
HETTINGER ARPT MOSUNNY   78  46  32 SE15G29   29.96F
$$

NDZ004>008-012>016-024-026-027-054-222100-
NORTHEAST NORTH DAKOTA

CITY           SKY/WX    TMP DP  RH WIND       PRES   REMARKS
GRAND FORKS    SUNNY     77  48  35 SW13      30.06F
GRND FRKS AFB  SUNNY     78  45  31 SW14      30.07F
DEVILS LAKE    SUNNY     77  39  25 S8        30.03F
$$

NDZ022-023-025-028>030-036>039-047>053-222100-
SOUTHEAST NORTH DAKOTA

CITY           SKY/WX    TMP DP  RH WIND       PRES   REMARKS
FARGO          SUNNY     76  46  34 S10       30.10F
JAMESTOWN      SUNNY     76  49  38 S13       30.06F
$$



USA.gov is the U.S. government's official web portal to all federal, state and local government web resources and services.